• In Germany
  • List of Countries
  • For 7 days
  • Water Temperature
  • Satellite Maps
  • Weather Map
  • Weather Widgets
  • user-avatar
    Login

    Hourly Weather San Miguel de Tucumán

    Today, 20 January, Saturday

    Time Temperature Precipitation Wind Pressure Humidity
    00:00 +24°C° 0 mm 1 mps 719 mmHg 73%
    01:00 +23°C° 0 mm 1 mps 719 mmHg 74%
    02:00 +23°C° 0 mm 1 mps 719 mmHg 75%
    03:00 +23°C° 0 mm 1 mps 718 mmHg 76%
    04:00 +23°C° 0 mm 1 mps 718 mmHg 76%
    05:00 +22°C° 0 mm 1 mps 718 mmHg 77%
    06:00 +24°C° 0 mm 1 mps 718 mmHg 73%
    07:00 +25°C° 0 mm 1 mps 719 mmHg 70%
    08:00 +27°C° 0 mm 1 mps 719 mmHg 66%
    09:00 +28°C° 0.1 mm 1 mps 719 mmHg 63%
    10:00 +29°C° 0.1 mm 2 mps 719 mmHg 60%
    11:00 +31°C° 0.1 mm 2 mps 719 mmHg 58%
    12:00 +30°C° 1.1 mm 2 mps 718 mmHg 62%
    13:00 +30°C° 1.1 mm 3 mps 718 mmHg 67%
    14:00 +30°C° 1.1 mm 3 mps 717 mmHg 71%
    15:00 +28°C° 1.5 mm 3 mps 717 mmHg 76%
    16:00 +27°C° 1.5 mm 3 mps 716 mmHg 81%
    17:00 +26°C° 1.5 mm 3 mps 716 mmHg 86%
    18:00 +25°C° 0.7 mm 2 mps 717 mmHg 88%
    19:00 +25°C° 0.7 mm 2 mps 717 mmHg 90%
    20:00 +24°C° 0.7 mm 2 mps 717 mmHg 92%
    21:00 +24°C° 0.2 mm 1 mps 718 mmHg 92%
    22:00 +23°C° 0.2 mm 1 mps 718 mmHg 92%
    23:00 +23°C° 0.2 mm 1 mps 719 mmHg 92%

    Tomorrow, 21 January, Sunday

    Time Temperature Precipitation Wind Pressure Humidity
    00:00 +23°C° 0 mm 1 mps 718 mmHg 91%
    01:00 +22°C° 0 mm 1 mps 717 mmHg 90%
    02:00 +22°C° 0 mm 1 mps 716 mmHg 89%
    03:00 +22°C° 0 mm 1 mps 716 mmHg 88%
    04:00 +22°C° 0 mm 1 mps 716 mmHg 87%
    05:00 +22°C° 0 mm 1 mps 716 mmHg 87%
    06:00 +22°C° 0 mm 1 mps 717 mmHg 85%
    07:00 +23°C° 0 mm 1 mps 717 mmHg 83%
    08:00 +24°C° 0 mm 2 mps 718 mmHg 81%
    09:00 +26°C° 0 mm 2 mps 718 mmHg 73%
    10:00 +28°C° 0 mm 2 mps 718 mmHg 64%
    11:00 +30°C° 0 mm 2 mps 717 mmHg 56%
    12:00 +31°C° 0 mm 2 mps 717 mmHg 52%
    13:00 +32°C° 0 mm 2 mps 716 mmHg 48%
    14:00 +34°C° 0 mm 2 mps 715 mmHg 44%
    15:00 +32°C° 0 mm 2 mps 714 mmHg 44%
    16:00 +32°C° 0 mm 2 mps 714 mmHg 45%
    17:00 +32°C° 0 mm 2 mps 713 mmHg 45%
    18:00 +30°C° 0 mm 1 mps 714 mmHg 53%
    19:00 +28°C° 0 mm 1 mps 714 mmHg 60%
    20:00 +26°C° 0 mm 1 mps 714 mmHg 68%
    21:00 +25°C° 0 mm 1 mps 715 mmHg 69%
    22:00 +25°C° 0 mm 1 mps 715 mmHg 70%
    23:00 +24°C° 0 mm 1 mps 716 mmHg 72%

    Day after tomorrow, 22 January, Monday

    Time Temperature Precipitation Wind Pressure Humidity
    00:00 +24°C° 0 mm 1 mps 715 mmHg 72%
    01:00 +24°C° 0 mm 1 mps 715 mmHg 73%
    02:00 +23°C° 0 mm 1 mps 714 mmHg 74%
    03:00 +23°C° 0 mm 1 mps 714 mmHg 74%
    04:00 +23°C° 0 mm 1 mps 714 mmHg 73%
    05:00 +23°C° 0 mm 1 mps 714 mmHg 72%
    06:00 +25°C° 0 mm 1 mps 714 mmHg 68%
    07:00 +26°C° 0 mm 1 mps 715 mmHg 64%
    08:00 +28°C° 0 mm 1 mps 716 mmHg 60%
    09:00 +30°C° 0 mm 1 mps 715 mmHg 56%
    10:00 +32°C° 0 mm 1 mps 715 mmHg 51%
    11:00 +34°C° 0 mm 2 mps 715 mmHg 47%
    12:00 +35°C° 0.1 mm 2 mps 715 mmHg 48%
    13:00 +35°C° 0.1 mm 2 mps 714 mmHg 48%
    14:00 +35°C° 0.1 mm 2 mps 713 mmHg 48%
    15:00 +35°C° 0.4 mm 2 mps 713 mmHg 49%
    16:00 +35°C° 0.4 mm 2 mps 712 mmHg 50%
    17:00 +35°C° 0.4 mm 2 mps 712 mmHg 50%
    18:00 +32°C° 0.4 mm 1 mps 712 mmHg 56%
    19:00 +30°C° 0.4 mm 1 mps 713 mmHg 62%
    20:00 +28°C° 0.4 mm 1 mps 713 mmHg 67%
    21:00 +28°C° 0.4 mm 1 mps 714 mmHg 69%
    22:00 +27°C° 0.4 mm 1 mps 714 mmHg 71%
    23:00 +27°C° 0.4 mm 1 mps 715 mmHg 73%

    23 January, Tuesday

    Time Temperature Precipitation Wind Pressure Humidity
    00:00 +26°C° 0.6 mm 1 mps 714 mmHg 74%
    01:00 +26°C° 0.6 mm 1 mps 714 mmHg 75%
    02:00 +26°C° 0.6 mm 1 mps 713 mmHg 76%
    03:00 +25°C° 0.1 mm 1 mps 713 mmHg 75%
    04:00 +25°C° 0.1 mm 1 mps 713 mmHg 73%
    05:00 +25°C° 0.1 mm 1 mps 713 mmHg 72%
    06:00 +26°C° 0.1 mm 1 mps 714 mmHg 68%
    07:00 +28°C° 0.1 mm 1 mps 714 mmHg 64%
    08:00 +30°C° 0.1 mm 1 mps 715 mmHg 60%
    09:00 +31°C° 0.3 mm 1 mps 715 mmHg 58%
    10:00 +32°C° 0.3 mm 1 mps 715 mmHg 56%
    11:00 +35°C° 0.3 mm 2 mps 715 mmHg 54%
    12:00 +35°C° 0.9 mm 2 mps 714 mmHg 54%
    13:00 +36°C° 0.9 mm 2 mps 713 mmHg 54%
    14:00 +36°C° 0.9 mm 2 mps 713 mmHg 54%
    15:00 +35°C° 1.4 mm 1 mps 713 mmHg 56%
    16:00 +34°C° 1.4 mm 1 mps 712 mmHg 58%
    17:00 +33°C° 1.4 mm 1 mps 712 mmHg 60%
    18:00 +32°C° 1.5 mm 1 mps 712 mmHg 66%
    19:00 +30°C° 1.5 mm 1 mps 713 mmHg 72%
    20:00 +28°C° 1.5 mm 1 mps 713 mmHg 77%
    21:00 +27°C° 1.3 mm 1 mps 713 mmHg 78%
    22:00 +27°C° 1.3 mm 1 mps 714 mmHg 80%
    23:00 +26°C° 1.3 mm 1 mps 714 mmHg 81%

    24 January, Wednesday

    Time Temperature Precipitation Wind Pressure Humidity
    00:00 +26°C° 1.1 mm 1 mps 714 mmHg 80%
    01:00 +26°C° 1.1 mm 2 mps 714 mmHg 80%
    02:00 +26°C° 1.1 mm 2 mps 713 mmHg 79%
    03:00 +25°C° 0.1 mm 2 mps 713 mmHg 78%
    04:00 +25°C° 0.1 mm 1 mps 714 mmHg 77%
    05:00 +25°C° 0.1 mm 1 mps 714 mmHg 75%
    06:00 +26°C° 0.9 mm 1 mps 715 mmHg 75%
    07:00 +27°C° 0.9 mm 2 mps 715 mmHg 75%
    08:00 +28°C° 0.9 mm 2 mps 716 mmHg 75%
    09:00 +30°C° 0.3 mm 3 mps 716 mmHg 70%
    10:00 +31°C° 0.3 mm 3 mps 716 mmHg 64%
    11:00 +34°C° 0.3 mm 4 mps 717 mmHg 59%
    12:00 +34°C° 1 mm 3 mps 716 mmHg 60%
    13:00 +34°C° 1 mm 3 mps 716 mmHg 60%
    14:00 +34°C° 1 mm 3 mps 716 mmHg 61%
    15:00 +34°C° 0.8 mm 3 mps 716 mmHg 63%
    16:00 +33°C° 0.8 mm 3 mps 715 mmHg 64%
    17:00 +32°C° 0.8 mm 2 mps 715 mmHg 65%
    18:00 +30°C° 1.5 mm 2 mps 716 mmHg 71%
    19:00 +28°C° 1.5 mm 2 mps 716 mmHg 77%
    20:00 +26°C° 1.5 mm 2 mps 717 mmHg 83%
    21:00 +26°C° 1.4 mm 2 mps 717 mmHg 83%
    22:00 +26°C° 1.4 mm 2 mps 718 mmHg 83%
    23:00 +25°C° 1.4 mm 2 mps 718 mmHg 83%

    25 January, Thursday

    Time Temperature Precipitation Wind Pressure Humidity
    00:00 +25°C° 0.2 mm 2 mps 718 mmHg 82%
    01:00 +25°C° 0.2 mm 2 mps 718 mmHg 81%
    02:00 +25°C° 0.2 mm 2 mps 717 mmHg 80%
    03:00 +24°C° 0.2 mm 2 mps 717 mmHg 82%
    04:00 +24°C° 0.2 mm 2 mps 718 mmHg 83%
    05:00 +24°C° 0.2 mm 2 mps 718 mmHg 85%
    06:00 +24°C° 0.2 mm 2 mps 718 mmHg 84%
    07:00 +25°C° 0.2 mm 2 mps 719 mmHg 84%
    08:00 +25°C° 0.2 mm 2 mps 719 mmHg 84%
    09:00 +25°C° 0.1 mm 2 mps 719 mmHg 83%
    10:00 +26°C° 0.1 mm 2 mps 719 mmHg 82%
    11:00 +26°C° 0.1 mm 2 mps 719 mmHg 82%
    12:00 +28°C° 0.1 mm 2 mps 718 mmHg 74%
    13:00 +30°C° 0.1 mm 2 mps 718 mmHg 66%
    14:00 +33°C° 0.1 mm 3 mps 717 mmHg 58%
    15:00 +31°C° 0.8 mm 3 mps 717 mmHg 64%
    16:00 +30°C° 0.8 mm 2 mps 716 mmHg 71%
    17:00 +29°C° 0.8 mm 2 mps 716 mmHg 77%
    18:00 +28°C° 1.1 mm 2 mps 716 mmHg 82%
    19:00 +27°C° 1.1 mm 2 mps 716 mmHg 87%
    20:00 +25°C° 1.1 mm 1 mps 717 mmHg 92%
    21:00 +25°C° 0.2 mm 1 mps 717 mmHg 92%
    22:00 +25°C° 0.2 mm 1 mps 717 mmHg 92%
    23:00 +24°C° 0.2 mm 1 mps 718 mmHg 91%
    Show more